[[{"header":{"parameterUnit":"m.s-1","parameterCategory":1,"la1":30.2991,"la2":30.254,"lo1":-89.0895,"lo2":-89.0444,"dy":0.0017,"dx":0.0017,"nx":28,"ny":28,"refTime":"2023-09-27T09:00:00:Z","depth":0,"parameterNumber":2,"parameterNumberName":"U-component_of_WINDS"},"data":[0,0,0,0,0,0,0,0,0,0,0,0,0,0,0,0,0,0,0,0,0,0,0,0,0,0,0,0,0,0,0,0,0,0,0,0,0,0,0,0,0,0,0,0,0,0,0,0,0,0,0,0,0,0,0,0,0,0,-2.0978,-2.0978,0,-2.099,-2.099,-2.0991,-2.0918,-2.0916,-2.0914,-2.0912,-2.0927,-2.0929,-2.0931,0,0,0,0,0,0,0,0,0,0,0,0,0,-2.0893,-2.0895,-2.0978,-2.0978,-2.0978,-2.099,-2.099,-2.0991,-2.0919,-2.0916,-2.0914,-2.0911,-2.0926,-2.0929,-2.0931,0,0,0,0,0,0,0,0,0,0,0,0,0,-2.0921,-2.0896,-2.0978,-2.0944,-2.0941,-2.099,-2.099,-2.0991,-2.0919,-2.0916,-2.0913,-2.091,-2.0925,-2.0928,-2.0932,-2.1015,0,0,-2.0942,-2.0944,0,0,0,0,0,0,0,0,-2.0919,-2.0924,-2.0949,-2.0946,-2.0943,-2.095,-2.0966,-2.0999,-2.092,-2.0928,-2.0912,-2.0909,-2.0937,-2.0939,-2.0948,-2.1016,-2.1016,-2.0943,-2.0945,-2.0946,-2.0947,0,0,0,0,0,0,0,-2.0917,-2.0923,-2.0983,-2.0949,-2.0946,-2.0928,-2.0929,-2.0972,-2.095,-2.0927,-2.0921,-2.0924,-2.0935,-2.0945,-2.0948,-2.1017,-2.0943,-2.0946,-2.0948,-2.0949,-2.1152,-2.1155,0,0,0,0,0,0,-2.092,-2.0922,-2.0983,-2.0983,-2.0923,-2.0932,-2.0933,-2.0951,-2.0949,-2.0946,-2.0926,-2.092,-2.0941,-2.0944,-2.0948,-2.1045,-2.0946,-2.0949,-2.0951,-2.1149,-2.1153,-2.1156,0,0,0,0,0,0,-2.0918,-2.0926,-2.0982,-2.0951,-2.0957,-2.0937,-2.0958,-2.0953,-2.0963,-2.0949,-2.0944,-2.0941,-2.0938,-2.0944,-2.0999,-2.1045,-2.0951,-2.0954,-2.1145,-2.115,-2.1154,-2.124,0,0,0,0,0,0,-2.0916,-2.0926,-2.0957,-2.0952,-2.0959,-2.1032,-2.0961,-2.0955,-2.0969,-2.0961,-2.0961,-2.0958,-2.0936,-2.0994,-2.1002,-2.1048,-2.0957,-2.114,-2.1147,-2.1153,-2.1233,-2.1247,-2.1259,0,0,0,0,0,-2.0913,-2.0981,-2.0959,-2.0967,-2.0998,-2.1035,-2.1039,-2.1012,-2.0973,-2.1004,-2.0995,-2.0958,-2.1038,-2.1,-2.1009,-2.1056,-2.1137,-2.1145,-2.1152,-2.1227,-2.1244,-2.1259,0,0,0,0,0,0,-2.0993,-2.098,-2.0955,-2.1024,-2.1031,-2.1023,-2.1062,-2.1031,-2.105,-2.1042,-2.1008,-2.1009,-2.107,-2.1068,-2.1026,-2.1136,-2.1081,-2.1091,-2.1135,-2.1151,-2.1164,-2.1163,-2.096,0,0,0,0,0,-2.1019,-2.105,-2.1037,-2.1099,-2.1103,-2.1082,-2.1097,-2.1076,-2.1082,-2.1085,-2.108,-2.1088,-2.1114,-2.1133,-2.1156,-2.1232,-2.1231,-2.1269,-2.1282,-2.1293,-2.1302,-2.1341,-2.1357,-2.1181,-2.1181,-2.118,0,0,-2.1072,-2.1069,-2.1091,-2.1115,-2.1117,-2.1151,-2.1085,-2.1123,-2.1147,-2.1091,-2.1142,-2.1139,-2.1145,-2.1211,-2.1239,-2.1212,-2.135,-2.1303,-2.1311,-2.1314,-2.135,-2.1367,-2.1382,-2.1186,-2.1185,-2.1184,0,0,-2.1186,-2.1187,-2.1238,-2.1242,-2.1246,-2.1231,-2.1244,-2.124,-2.1235,-2.1286,-2.1244,-2.1272,-2.1319,-2.1325,-2.1334,-2.1449,-2.1416,-2.1458,-2.1527,-2.1566,-2.158,-2.1592,-2.1632,-2.1647,-2.1467,-2.1467,-2.1467,0,-2.1252,-2.1299,-2.1268,-2.1308,-2.132,-2.1269,-2.132,-2.1326,-2.1339,-2.1348,-2.1316,-2.1373,-2.1374,-2.144,-2.1468,-2.1477,-2.149,-2.1458,-2.158,-2.1592,-2.1603,-2.1641,-2.1657,-2.1472,-2.1471,-2.1471,-2.147,0,-2.138,-2.1413,-2.1454,-2.1467,-2.1483,-2.1529,-2.1504,-2.1524,-2.1501,-2.1489,-2.1541,-2.154,-2.1563,-2.1577,-2.1555,-2.1639,-2.1622,-2.1586,-2.153,-2.1625,-2.1661,-2.1675,-2.1479,-2.1477,-2.1476,-2.1475,0,0,-2.1545,-2.1539,-2.1554,-2.1559,-2.156,-2.1585,-2.1629,-2.1649,-2.1667,-2.1678,-2.1713,-2.1753,-2.1719,-2.173,-2.1708,-2.1742,-2.1832,-2.1701,-2.1701,-2.1725,-2.1924,-2.1951,-2.1969,-2.181,-2.1812,-2.1815,-2.1924,0,-2.1656,-2.1729,-2.1701,-2.1777,-2.1807,-2.1758,-2.1796,-2.1801,-2.1791,-2.1815,-2.1805,-2.1833,-2.1787,-2.1793,-2.1824,-2.1814,-2.1871,-2.1806,-2.1842,-2.1844,-2.1842,-2.1987,-2.2016,-2.2119,-2.1937,-2.194,-2.1941,0,-2.1796,-2.181,-2.1888,-2.1883,-2.1894,-2.1929,-2.1945,-2.1969,-2.1973,-2.1964,-2.1975,-2.1945,-2.1987,-2.1931,-2.1988,-2.1945,-2.1958,-2.1955,-2.1958,-2.1961,-2.1899,-2.1993,-2.2151,-2.2167,-2.1963,-2.1961,-2.1959,0,-2.1908,-2.1947,-2.1999,-2.2004,-2.1999,-2.2024,-2.2023,-2.2024,-2.2038,-2.2053,-2.2061,-2.2081,-2.2092,-2.2108,-2.2084,-2.2045,-2.2145,-2.2087,-2.2138,-2.2138,-2.2161,-2.216,-2.2323,-2.217,-2.217,-2.2169,-2.2169,0,-2.2035,-2.2084,-2.2049,-2.2081,-2.2134,-2.2102,-2.2156,-2.215,-2.2151,-2.2181,-2.214,-2.2169,-2.2136,-2.2162,-2.2144,-2.2193,-2.2199,-2.2192,-2.2187,-2.2196,-2.2196,-2.2204,-2.2196,-2.2173,-2.2173,-2.2172,-2.2171,0,-2.217,-2.2148,-2.22,-2.2191,-2.219,-2.223,-2.2222,-2.225,-2.2237,-2.2275,-2.2282,-2.2262,-2.229,-2.2268,-2.2295,-2.2283,-2.2349,-2.2333,-2.2347,-2.2343,-2.2395,-2.239,-2.2568,-2.259,-2.2423,-2.2425,-2.2426,0,-2.2252,-2.2288,-2.2282,-2.2299,-2.23,-2.2327,-2.2341,-2.231,-2.2326,-2.2333,-2.2361,-2.2385,-2.2403,-2.245,-2.2438,-2.2459,-2.2443,-2.2504,-2.2446,-2.2454,-2.2443,-2.2441,-2.2445,-2.2516,-2.2518,-2.252,-2.2521,0,-2.24,-2.2387,-2.2408,-2.2425,-2.2442,-2.2454,-2.2463,-2.2479,-2.2447,-2.2467,-2.2494,-2.2508,-2.2535,-2.256,-2.2576,-2.2576,-2.2543,-2.2539,-2.2552,-2.2561,-2.2568,-2.2564,-2.2379,-2.2535,-2.2534,-2.2533,-2.2532,-2.2531,-2.2511,-2.254,-2.254,-2.2564,-2.2568,-2.2577,-2.2603,-2.2592,-2.2614,-2.2634,-2.2614,-2.2648,-2.265,-2.2668,-2.2671,-2.2697,-2.2672,-2.269,-2.2695,-2.27,-2.2707,-2.2564,-2.27,-2.2699,-2.2699,-2.2699,-2.2698,0,-2.2656,-2.2653,-2.2676,-2.2688,-2.2707,-2.2674,-2.2682,-2.27,-2.273,-2.2734,-2.2752,-2.2783,-2.2806,-2.2796,-2.2816,-2.2838,-2.2824,-2.2845,-2.2843,-2.2843,-2.2729,-2.2716,-2.2856,-2.2856,-2.2856,-2.2856,-2.2856,-2.2856,-2.2734,-2.2782,-2.2769,-2.2819,-2.2815,-2.2847,-2.2854,-2.2862,-2.2865,-2.2901,-2.292,-2.2913,-2.2911,-2.293,-2.295,-2.2946,-2.2955,-2.2982,-2.2973,-2.2867,-2.2851,-2.2836,-2.2823,-2.2984,-2.2984,-2.3084,-2.3085,-2.3086]},{"header":{"parameterUnit":"m.s-1","parameterCategory":1,"la1":30.2991,"la2":30.254,"lo1":-89.0895,"lo2":-89.0444,"dy":0.0017,"dx":0.0017,"nx":28,"ny":28,"refTime":"2023-09-27T09:00:00:Z","depth":0,"parameterNumber":3,"parameterNumberName":"V-component_of_WINDS"},"data":[0,0,0,0,0,0,0,0,0,0,0,0,0,0,0,0,0,0,0,0,0,0,0,0,0,0,0,0,0,0,0,0,0,0,0,0,0,0,0,0,0,0,0,0,0,0,0,0,0,0,0,0,0,0,0,0,0,0,-4.8761,-4.8761,0,-4.8811,-4.8811,-4.8812,-4.8741,-4.8738,-4.8736,-4.8733,-4.878,-4.8783,-4.8787,0,0,0,0,0,0,0,0,0,0,0,0,0,-4.8599,-4.8602,-4.8761,-4.8761,-4.8762,-4.881,-4.8811,-4.8812,-4.8741,-4.8738,-4.8735,-4.8732,-4.8779,-4.8783,-4.8787,0,0,0,0,0,0,0,0,0,0,0,0,0,-4.8661,-4.8603,-4.876,-4.8732,-4.873,-4.881,-4.8811,-4.8812,-4.8742,-4.8738,-4.8734,-4.8731,-4.8777,-4.8783,-4.8788,-4.8896,0,0,-4.8804,-4.8807,0,0,0,0,0,0,0,0,-4.8657,-4.8667,-4.8736,-4.8735,-4.8732,-4.8766,-4.8771,-4.884,-4.8743,-4.8737,-4.8733,-4.8729,-4.8778,-4.8783,-4.88,-4.8898,-4.89,-4.8805,-4.8808,-4.881,-4.8812,0,0,0,0,0,0,0,-4.8653,-4.8664,-4.878,-4.8737,-4.8735,-4.8716,-4.872,-4.8784,-4.8778,-4.8737,-4.8732,-4.874,-4.8776,-4.8795,-4.8801,-4.8901,-4.8805,-4.8809,-4.8813,-4.8815,-4.9089,-4.9093,0,0,0,0,0,0,-4.8653,-4.8661,-4.8779,-4.8782,-4.8685,-4.8722,-4.8727,-4.8759,-4.8777,-4.8776,-4.8743,-4.8736,-4.8788,-4.8795,-4.8802,-4.893,-4.881,-4.8815,-4.8818,-4.9085,-4.909,-4.9094,0,0,0,0,0,0,-4.865,-4.8664,-4.8776,-4.872,-4.8733,-4.8729,-4.8765,-4.8762,-4.8781,-4.8781,-4.8779,-4.8764,-4.8785,-4.8795,-4.8873,-4.8931,-4.8818,-4.8823,-4.908,-4.9087,-4.9092,-4.9187,0,0,0,0,0,0,-4.8645,-4.8663,-4.8706,-4.8722,-4.8736,-4.8849,-4.8768,-4.8765,-4.8791,-4.8783,-4.88,-4.88,-4.8783,-4.8866,-4.8879,-4.8936,-4.8827,-4.9075,-4.9083,-4.909,-4.9178,-4.9195,-4.921,0,0,0,0,0,-4.864,-4.8729,-4.8708,-4.8723,-4.8789,-4.8852,-4.886,-4.8841,-4.8796,-4.8837,-4.8837,-4.8799,-4.8922,-4.8875,-4.8889,-4.8948,-4.9071,-4.9081,-4.909,-4.9171,-4.9192,-4.9209,0,0,0,0,0,0,-4.8719,-4.8731,-4.8708,-4.8806,-4.8829,-4.884,-4.8892,-4.8863,-4.8898,-4.8889,-4.8862,-4.8866,-4.8951,-4.8957,-4.8904,-4.9053,-4.8989,-4.9002,-4.9046,-4.9066,-4.9081,-4.9078,-4.8831,0,0,0,0,0,-4.8748,-4.88,-4.8807,-4.8892,-4.8905,-4.8897,-4.8923,-4.8906,-4.8928,-4.8937,-4.8943,-4.8965,-4.9008,-4.9037,-4.9077,-4.9179,-4.9181,-4.9226,-4.9242,-4.9255,-4.9266,-4.9319,-4.9339,-4.9125,-4.9124,-4.9124,0,0,-4.8808,-4.8821,-4.8855,-4.8908,-4.8924,-4.8977,-4.8905,-4.8964,-4.9002,-4.8946,-4.9021,-4.9026,-4.9048,-4.9138,-4.9178,-4.9146,-4.9326,-4.9267,-4.9277,-4.9281,-4.9331,-4.9351,-4.9369,-4.9131,-4.913,-4.9129,0,0,-4.8944,-4.896,-4.9033,-4.905,-4.9076,-4.907,-4.9087,-4.9103,-4.9105,-4.918,-4.9139,-4.9182,-4.9258,-4.9276,-4.9294,-4.9437,-4.9403,-4.945,-4.9532,-4.9584,-4.9601,-4.9616,-4.9667,-4.9685,-4.9461,-4.9462,-4.9462,0,-4.9016,-4.9095,-4.9073,-4.9135,-4.9159,-4.9112,-4.9185,-4.9202,-4.9239,-4.9256,-4.9219,-4.9313,-4.9324,-4.9418,-4.9453,-4.947,-4.9488,-4.9448,-4.9601,-4.9615,-4.9629,-4.9677,-4.9696,-4.9467,-4.9467,-4.9466,-4.9465,0,-4.918,-4.9236,-4.9291,-4.933,-4.936,-4.9426,-4.9414,-4.9447,-4.9427,-4.9424,-4.95,-4.9513,-4.9554,-4.9575,-4.9556,-4.9666,-4.9645,-4.9605,-4.954,-4.9656,-4.97,-4.9718,-4.9475,-4.9473,-4.9472,-4.947,0,0,-4.9369,-4.9394,-4.9415,-4.9432,-4.9456,-4.9497,-4.9561,-4.9603,-4.9631,-4.9658,-4.971,-4.9775,-4.9738,-4.976,-4.9742,-4.9788,-4.9899,-4.9742,-4.9742,-4.9771,-5.0021,-5.0051,-5.0072,-4.9877,-4.988,-4.9883,-5.0019,0,-4.9505,-4.9617,-4.96,-4.9708,-4.9758,-4.9713,-4.9769,-4.9789,-4.9788,-4.9829,-4.9826,-4.9873,-4.9821,-4.9834,-4.9877,-4.9877,-4.9949,-4.9866,-4.9924,-4.9926,-4.992,-5.0096,-5.0128,-5.0255,-5.0036,-5.0039,-5.0041,0,-4.9679,-4.9713,-4.9827,-4.9843,-4.9863,-4.9914,-4.995,-4.9991,-5.0012,-5.0007,-5.0032,-5.0005,-5.0067,-5.0001,-5.0086,-5.003,-5.0052,-5.0055,-5.0059,-5.0064,-4.9991,-5.0105,-5.0296,-5.0315,-5.0068,-5.0066,-5.0064,0,-4.9804,-4.9879,-4.9956,-4.9972,-4.9993,-5.0029,-5.0039,-5.0057,-5.0083,-5.0114,-5.0131,-5.0168,-5.0189,-5.0218,-5.0202,-5.0155,-5.0289,-5.0222,-5.0286,-5.0287,-5.0317,-5.0315,-5.0514,-5.0331,-5.0331,-5.0331,-5.033,0,-4.9958,-5.0029,-5.0013,-5.0061,-5.0139,-5.0117,-5.0194,-5.0198,-5.0214,-5.0261,-5.0224,-5.0268,-5.0244,-5.0285,-5.0273,-5.0345,-5.0354,-5.0351,-5.0347,-5.0355,-5.0355,-5.0369,-5.036,-5.0336,-5.0335,-5.0334,-5.0333,0,-5.0112,-5.0104,-5.0186,-5.0199,-5.0204,-5.0261,-5.0271,-5.0315,-5.0311,-5.037,-5.0382,-5.0376,-5.0423,-5.041,-5.046,-5.0452,-5.0543,-5.0527,-5.0536,-5.0532,-5.0598,-5.0592,-5.0813,-5.084,-5.064,-5.0642,-5.0643,0,-5.0211,-5.0265,-5.0284,-5.0313,-5.0327,-5.0374,-5.0401,-5.0381,-5.041,-5.0438,-5.0478,-5.0523,-5.0557,-5.0634,-5.0633,-5.0671,-5.0656,-5.0731,-5.0662,-5.0668,-5.0657,-5.0655,-5.0659,-5.0745,-5.0747,-5.0749,-5.0751,0,-5.0387,-5.0381,-5.0422,-5.0462,-5.0495,-5.0525,-5.0551,-5.0577,-5.0558,-5.0593,-5.0641,-5.0668,-5.0721,-5.0765,-5.08,-5.0808,-5.0776,-5.0772,-5.0789,-5.0798,-5.0801,-5.08,-5.0574,-5.0767,-5.0766,-5.0764,-5.0764,-5.0763,-5.0516,-5.0562,-5.0583,-5.063,-5.0648,-5.0673,-5.0715,-5.0716,-5.0757,-5.0799,-5.0784,-5.084,-5.0858,-5.0902,-5.0915,-5.0957,-5.0929,-5.0953,-5.096,-5.0966,-5.0975,-5.0794,-5.0964,-5.0963,-5.0963,-5.0962,-5.0962,0,-5.0691,-5.0702,-5.0745,-5.0784,-5.082,-5.0789,-5.0816,-5.0848,-5.0898,-5.0918,-5.0953,-5.1009,-5.1051,-5.1054,-5.1093,-5.1126,-5.1113,-5.1137,-5.1134,-5.1137,-5.0998,-5.0979,-5.1148,-5.1147,-5.1147,-5.1147,-5.1147,-5.1147,-5.0786,-5.0861,-5.0857,-5.0941,-5.0951,-5.1007,-5.1025,-5.1047,-5.1064,-5.1128,-5.1164,-5.1165,-5.1178,-5.1218,-5.1255,-5.1254,-5.1271,-5.1301,-5.1295,-5.1165,-5.1147,-5.1129,-5.1111,-5.1305,-5.1305,-5.143,-5.1431,-5.1432]}]]